Regional Weather Roundup
Issued by NWS

Home | Current Version | Previous Version | Graphics & Text | Print | Product List | Glossary Off
Versions: 1 2 3 4 5 6 7 8 9 10 11 12 13 14 15 16 17 18 19 20 21 22 23 24 25 26 27 28 29 30 31 32 33 34 35 36 37 38 39 40 41 42 43 44 45 46 47 48 49 50

000
ASUS45 KTFX 011619
RWRMT
MONTANA HOURLY WEATHER ROUNDUP
NATIONAL WEATHER SERVICE GREAT FALLS MT
919 AM MST SUN MAR 1 2015

NOTE: "FAIR" INDICATES FEW OR NO CLOUDS BELOW 12000 FEET WITH NO
SIGNIFICANT WEATHER AND/OR OBSTRUCTIONS TO VISIBILITY.

* THESE STATIONS ARE NOT UNDER NWS QUALITY CONTROL. THEY DO NOT
   REPORT WEATHER SUCH AS PRECIPITATION OR FOG.

MTZ001>007-043-011700-
WEST OF THE DIVIDE
CITY           SKY/WX    TMP DP  RH WIND       PRES   REMARKS
KALISPELL      SUNNY     21   9  60 NE12      30.28R WCI   9
MISSOULA       SUNNY     18   9  68 S6        30.32R WCI  10
BUTTE          SUNNY      7   0  73 CALM      30.21R
MULLAN PASS    SUNNY     16   1  51 S8        30.08R WCI   5
* ANACONDA     SUNNY     10   1  67 S9         N/A   WCI  -3
* ESSEX        N/A        6   1  80 N1         N/A
* EUREKA APT   SUNNY     19   9  65 CALM      30.28S
* HAMILTON APT SUNNY     21   3  45 S13       30.27R WCI   8
* LIBBY APT    PTCLDY    18   9  68 CALM      30.30R
* LINCOLN      N/A       -2  -9  72 N/A        N/A
* LOOKOUT PASS N/A        9   3  76 SE4        N/A
* POLSON       N/A       17  11  77 S1         N/A
* RONAN APT    SUNNY     19  10  68 N/A        N/A
* SEELEY LAKE  N/A       -4 -10  75 N/A        N/A
* THOMP F APT  SUNNY     10  -4  53 NW13G24    N/A   WCI  -5
$$

MTZ008-052>055-011700-
SOUTHWEST MONTANA
CITY           SKY/WX    TMP DP  RH WIND       PRES   REMARKS
BOZEMAN        SUNNY     16   3  56 SE5       30.29R WCI   8
DILLON         SUNNY     10   1  67 S6        30.23R
* W YELLOWSTON SUNNY     -5 -11  75 N1         N/A
* THREE FORKS  SUNNY     12   7  80 N/A        N/A
* BOULDER HILL N/A        4  -5  66 SW13       N/A   WCI -13
* MONIDA PASS  N/A        9   1  70 NE6        N/A   WCI  -1
* RAYNOLDS PAS N/A       -4  -4 100 N4         N/A
* WHITEHALL    N/A        8   1  73 NW2G7      N/A
* WISE RIVER   N/A        5  -5  63 SE1        N/A
$$

MTZ009>010-012-014-046-048-049-054-011700-
EAST SLOPES AND CENTRAL MONTANA
CITY           SKY/WX    TMP DP  RH WIND       PRES   REMARKS
CUT BANK       SUNNY     14   9  80 S3        30.16F
GREAT FALLS    SUNNY     19  10  68 SW14      30.22S WCI   5
HELENA         SUNNY     16   5  62 CALM      30.30S
MALMSTROM AFB  SUNNY     21  14  74 SW12      30.24F WCI   9
* CONRAD       SUNNY     10   7  88 CALM       N/A
* DEARBORN     N/A        7   4  87 SW1        N/A
* EAST GLACIER N/A       16   2  54 W17G22     N/A
* MONARCH      N/A        6   0  76 S8         N/A   WCI  -7
* PENDROY      N/A       16   7  67 S9         N/A   WCI   5
* ROGERS PASS  N/A       12   2  64 SE9        N/A
* SWEET GRASS  N/A       11   8  88 S12        N/A   WCI  -4
* WHITE SULPH  N/A       14   3  61 NE3        N/A
$$

MTZ011-013-016-021-035-040-045-047-050-051-011700-
NORTH CENTRAL MONTANA
CITY           SKY/WX    TMP DP  RH WIND       PRES   REMARKS
HAVRE          PTCLDY    19  16  88 SW12      30.28S WCI   6
LEWISTOWN      SUNNY     18   9  68 CALM      30.23S
* CHINOOK      SUNNY     19  12  74 CALM      30.30S
* FORT BENTON  SUNNY     21  10  62 S3        30.29S
* CHESTER      N/A       14   8  77 SW2        N/A
* DENTON       N/A       16   9  74 S9         N/A   WCI   5
* GEYSER       N/A       19   5  54 W3         N/A
* JUDITH GAP   N/A       11   4  73 E3         N/A
* LOMA         N/A       16   9  74 SW2        N/A
$$

MTZ017>020-022>027-061-062-011700-
NORTHEAST MONTANA
CITY           SKY/WX    TMP DP  RH WIND       PRES   REMARKS
GLASGOW        PTSUNNY   18  12  77 NW8       30.30R WCI   8
GLENDIVE       PTSUNNY   19  14  81 NW15      30.28R WCI   5
JORDAN         SUNNY     19  12  74 NW17      30.29R WCI   4
SIDNEY         PTCLDY    21  12  68 NW14      30.31R WCI   8
WOLF POINT     CLOUDY    19  12  74 NW12      30.31R WCI   6
* BEAVER HILL  N/A       17  12  81 W15        N/A   WCI   2
* CIRCLE       N/A       17  14  88 W13        N/A   WCI   3
* LINDSAY DVD  N/A       16  13  88 W16        N/A   WCI   1
* NAVAJO       N/A       13  10  88 NW12G17    N/A   WCI  -1
* PLENTYWOOD A SUNNY     12  10  92 W12       30.25R WCI  -2
* POPLAR APT   SUNNY     19  12  74 W13       30.30R WCI   6
* SACO         N/A       17  11  77 W9         N/A   WCI   6
$$

MTZ028>042-056>058-011700-
SOUTHCENTRAL AND SOUTHEAST MONTANA
CITY           SKY/WX    TMP DP  RH WIND       PRES   REMARKS
BAKER          LGT SNOW  18  12  77 W17G24    30.25R VSB 2 1/2 WCI   3
BILLINGS       SUNNY     18   7  62 SW12      30.29R WCI   5
LIVINGSTON     SUNNY     19   5  54 W20       30.24S WCI   3
MILES CITY     CLOUDY    23  14  68 NW17      30.30R WCI   9
* BIG TIMBER A SUNNY     18   3  52 SW14      30.26R WCI   4
* FORSYTH APT  SUNNY     21  12  68 W12G17    30.32R WCI   9
* LAUREL APT   SUNNY     18   3  52 SW8        N/A   WCI   8
* ROUNDUP APT  SUNNY     19   7  59 N/A        N/A
* ALZADA       N/A       18  11  74 W14        N/A   WCI   4
* HYSHAM       N/A       16   7  67 W6         N/A   WCI   7
* LAME DEER    N/A       13   7  77 W10        N/A
* REED POINT   N/A       19  11  71 E3         N/A
* ROSCOE HILL  N/A       16  -5  39 SE4        N/A
$$

REGIONAL REPORTS...DAKOTAS
CITY           SKY/WX    TMP DP  RH WIND       PRES   REMARKS
WILLISTON      PTSUNNY   18  10  71 NW10      30.27R WCI   6
DICKINSON      PTCLDY    21  14  74 NW17      30.18R WCI   7
BEACH          LGT SNOW  18  16  92 NW16      30.24R VSB 2 1/2 WCI   3
CROSBY         LGT SNOW  10  10 100 NW14      30.25R WCI  -6
TIOGA          CLOUDY    10  10 100 NW13      30.24R WCI  -5
WATFORD CITY   CLOUDY    16  10  77 NW12      30.23R WCI   3
BISMARCK       N/A       19  12  74 NW15G26   30.23R WCI   5
GRAND FORKS    PTCLDY    12   5  73 NW10      30.18R WCI  -1
FARGO          PTSUNNY   14   3  61 SW12      30.21S
BUFFALO SD     SUNNY     19  12  74 NW24G32   30.15R WCI   2
RAPID CITY     SUNNY     21  10  62 NW5       30.26R WCI  14
$$

REGIONAL REPORTS...WYOMING/IDAHO/WASHINGTON
CITY           SKY/WX    TMP DP  RH WIND       PRES   REMARKS
GILLETTE       SUNNY     18   9  68 W13       30.24R WCI   5
SHERIDAN       SUNNY     18   5  57 VRB3      30.27R
CODY           PTCLDY    16   9  74 CALM      30.23R
YELLOWSTONE LA PTCLDY    -6  -8  91 SE3       30.13R
SALMON         SUNNY     19   9  65 CALM      30.27R
MULLAN PASS    SUNNY     16   1  51 S8        30.08S WCI   5
SAND POINT     PTSUNNY   25  14  63 CALM      30.27S
SPOKANE        PTSUNNY   25  14  63 E3        30.23R
$$

REGIONAL REPORTS...ALBERTA
CITY           SKY/WX    TMP DP  RH WIND       PRES   REMARKS
CALGARY        PTSUNNY   16   7  67 S6        30.09F WCI   7
LETHBRIDGE     SUNNY     19  10  68 S8        30.17F WCI   9
MEDICINE HAT   PTCLDY    16  12  84 SW6       30.25S WCI   7
EDMONTON       SUNNY      9   3  76 S9        30.12F WCI  -4
WATERTON GATE  N/A       25   7  46 SW21G28    N/A   WCI  10
CARDSTON       N/A       18   7  62 S5         N/A   WCI  11
MILK RIVER     N/A       12   5  73 S2         N/A
$$

REGIONAL REPORTS...SASKATCHEWAN
CITY           SKY/WX    TMP DP  RH WIND       PRES   REMARKS
SWIFT CURRENT  LGT SNOW  12  10  92 W12       30.23R WCI  -2
REGINA         PTCLDY     1   0  95 SW6       30.23R WCI -11
VAL MARIE      N/A       19  16  88 NW6        N/A   WCI  11
ASSINIBOIA     N/A       14  10  84 NW12       N/A
CORONACH       N/A       16  12  84 NW10       N/A   WCI   4

$$



USA.gov is the U.S. government's official web portal to all federal, state and local government web resources and services.